Orbital Elements
Epoch 2023 Sept. 13.0 TT = JDT 2460200.5
T 2023 Aug. 3.67325 TT Rudenko
q 2.8984047 (2000.0) P Q
z +0.0003064 Peri. 89.00786 -0.46218872 +0.67313884
+/-0.0000002 Node 132.92503 -0.68625601 -0.68380728
e 0.9991118 Incl. 52.03489 +0.56163536 -0.28158782
>From 694 observations 2022 Jan. 7-2023 Sept. 24, mean residual 0".5.
|